TimeEST,TemperatureF,Dew PointF,Humidity,Sea Level PressureIn,VisibilityMPH,Wind Direction,Wind SpeedMPH,Gust SpeedMPH,PrecipitationIn,Events,Conditions,WindDirDegrees,DateUTC
12:53 AM,60.1,55.9,86,29.41,6.0,South,16.1,32.2,N/A,,Overcast,190,2013-01-31 05:53:00
1:34 AM,60.8,57.2,88,29.37,4.0,South,21.9,33.4,0.01,Rain,Light Rain,190,2013-01-31 06:34:00
1:43 AM,60.8,-9999,N/A,29.37,5.0,South,21.9,40.3,0.01,Rain,Light Rain,180,2013-01-31 06:43:00
1:53 AM,60.1,-9999,N/A,29.35,5.0,South,19.6,33.4,0.01,,Haze,190,2013-01-31 06:53:00
2:40 AM,59.0,-9999,N/A,29.31,4.0,South,23.0,39.1,0.01,Rain,Light Rain,190,2013-01-31 07:40:00
2:51 AM,59.0,-9999,N/A,29.30,3.0,South,27.6,36.8,0.02,,Overcast,190,2013-01-31 07:51:00
2:53 AM,59.0,-9999,N/A,29.29,3.0,SSW,20.7,36.8,0.02,,Overcast,200,2013-01-31 07:53:00
3:53 AM,60.1,-9999,N/A,29.21,4.0,SSW,25.3,43.7,0.01,,Haze,200,2013-01-31 08:53:00
4:53 AM,61.0,-9999,N/A,29.15,5.0,South,19.6,38.0,0.04,Rain,Light Rain,190,2013-01-31 09:53:00
5:53 AM,60.1,-9999,N/A,29.06,4.0,South,29.9,42.6,0.17,Rain,Light Rain,180,2013-01-31 10:53:00
6:53 AM,60.1,-9999,N/A,29.08,8.0,SSW,19.6,35.7,0.17,Rain,Light Rain,200,2013-01-31 11:53:00
7:53 AM,59.0,55.9,90,29.03,6.0,South,15.0,21.9,0.03,Rain,Light Rain,180,2013-01-31 12:53:00
8:28 AM,57.2,55.4,94,29.01,4.0,SSW,16.1,25.3,0.04,Rain,Light Rain,200,2013-01-31 13:28:00
8:53 AM,57.0,54.0,89,28.99,10.0,SSW,15.0,31.1,0.04,,Overcast,200,2013-01-31 13:53:00
9:53 AM,57.0,52.0,83,29.04,10.0,West,13.8,25.3,N/A,,Mostly Cloudy,280,2013-01-31 14:53:00
10:03 AM,46.4,42.8,87,29.09,5.0,West,28.8,44.9,0.01,,Haze,280,2013-01-31 15:03:00
10:14 AM,46.4,41.0,81,29.10,5.0,WNW,23.0,41.4,0.02,Rain,Light Rain,290,2013-01-31 15:14:00
10:53 AM,48.0,41.0,77,29.14,10.0,West,18.4,26.5,0.02,,Mostly Cloudy,260,2013-01-31 15:53:00
11:53 AM,48.0,36.0,63,29.17,10.0,West,18.4,29.9,N/A,,Overcast,270,2013-01-31 16:53:00
12:53 PM,46.0,32.0,58,29.20,10.0,West,21.9,29.9,N/A,,Mostly Cloudy,280,2013-01-31 17:53:00
1:53 PM,45.0,25.0,46,29.24,10.0,West,20.7,35.7,N/A,,Mostly Cloudy,280,2013-01-31 18:53:00
2:53 PM,44.1,21.0,40,29.29,10.0,West,16.1,27.6,N/A,,Scattered Clouds,280,2013-01-31 19:53:00
3:53 PM,45.0,17.1,33,29.33,10.0,West,13.8,27.6,N/A,,Partly Cloudy,280,2013-01-31 20:53:00
4:53 PM,42.1,17.1,37,29.36,10.0,West,11.5,-,N/A,,Overcast,270,2013-01-31 21:53:00
5:53 PM,41.0,17.1,38,29.42,10.0,WNW,12.7,23.0,N/A,,Mostly Cloudy,290,2013-01-31 22:53:00
6:53 PM,39.9,16.0,38,29.46,10.0,West,17.3,29.9,N/A,,Overcast,280,2013-01-31 23:53:00
7:53 PM,37.9,16.0,41,29.49,10.0,West,18.4,25.3,N/A,,Overcast,270,2013-02-01 00:53:00
8:53 PM,37.0,12.9,37,29.52,10.0,West,17.3,25.3,N/A,,Overcast,270,2013-02-01 01:53:00
9:53 PM,35.1,17.1,48,29.56,10.0,West,18.4,28.8,N/A,,Overcast,270,2013-02-01 02:53:00
10:53 PM,34.0,16.0,48,29.59,10.0,West,13.8,23.0,N/A,,Mostly Cloudy,270,2013-02-01 03:53:00
11:53 PM,32.0,17.1,54,29.60,10.0,West,9.2,18.4,N/A,,Mostly Cloudy,260,2013-02-01 04:53:00